Location: Eldred Sherwood Park Lake Dam
(42.9416°N, 93.5655°W)
Time: 00:30:19
(UTC+00:00)

Vanguard 3 - Visible Passes

Search period start: 05 November 2024 00:00
Search period end: 15 November 2024 00:00
Orbit: 508 x 3221 km, 33.3° (Epoch: 04 November)

Date Brightness Start Highest point End Pass type
(mag) Time Alt. Az. Time Alt. Az. Time Alt. Az.
05 Nov 8.8 01:44:33 10° WSW 01:48:12 21° SSW 01:48:12 21° SSW visible
06 Nov 8.6 00:23:22 10° WSW 00:29:52 32° SSW 00:33:18 15° SE visible
07 Nov 8.6 01:16:14 10° WSW 01:21:14 23° SSW 01:22:32 21° S visible
07 Nov 8.8 23:54:36 10° WSW 00:02:20 35° SSW 00:07:10 10° SE visible
08 Nov 9.5 02:10:02 10° WSW 02:11:47 12° SW 02:11:47 12° SW visible
09 Nov 8.9 00:47:39 10° WSW 00:53:40 25° SSW 00:56:57 14° SSE visible
09 Nov 9.1 23:25:35 10° WSW 23:34:39 39° SSW 23:40:07 10° SE visible
10 Nov 9.4 01:41:28 10° WSW 01:44:39 14° SW 01:46:15 12° SSW visible
11 Nov 9.3 00:18:47 10° W 00:25:59 28° SSW 00:30:43 10° SSE visible
12 Nov 9.5 01:12:41 10° WSW 01:16:56 16° SW 01:20:14 10° S visible
12 Nov 9.5 23:49:40 10° W 23:58:10 31° SSW 00:03:34 10° SSE visible
14 Nov 9.7 00:43:38 10° WSW 00:49:06 18° SW 00:53:07 10° S visible
14 Nov 9.8 23:20:19 10° W 23:30:11 33° SSW 23:36:20 10° SSE visible
